GFSMW_850_spd_102.txt.gz
Wind_Speed
20 19 23 30 31 32 31 32 30 30 28 28 30 27 29 25 21 20 18 15 15 13 15 17 20 22 22 19 17 16 15 15 13 13 14 14 14 15 14 14 12 13 13
24 22 21 24 30 31 31 32 30 28 28 29 32 30 27 27 25 22 21 20 19 17 15 14 15 19 18 15 14 14 14 14 14 14 13 11 11 12 14 15 14 14 16
27 26 23 22 21 23 29 31 29 31 32 32 29 26 26 26 29 29 28 26 23 21 21 18 13 15 15 10 13 14 14 14 14 15 13 6 3 6 9 13 17 16 17
24 29 27 26 22 20 23 25 26 27 28 31 28 26 28 30 29 29 29 27 24 24 23 23 21 20 20 21 22 17 19 19 17 15 17 17 19 11 8 12 15 17 18
18 21 33 31 26 22 22 25 25 24 25 26 28 26 25 26 27 32 30 27 24 22 23 24 24 21 22 21 20 21 20 17 16 14 14 12 19 17 16 22 19 19 18
12 11 22 35 31 25 23 24 25 26 26 25 25 25 25 25 23 26 31 32 25 17 17 19 16 17 13 12 11 12 13 15 14 16 17 18 22 22 20 27 25 24 22
18 14 21 35 33 31 28 26 26 26 23 21 22 24 25 24 24 20 16 14 16 16 16 19 23 26 27 25 17 16 17 18 18 14 20 21 27 27 25 27 26 26 25
22 17 15 29 32 28 27 25 24 23 22 23 22 22 23 23 19 17 15 16 15 15 20 22 22 20 20 25 25 28 32 34 35 27 22 25 30 30 29 28 25 25 23
21 22 19 16 27 26 26 24 23 22 23 24 25 24 23 23 23 21 20 18 18 19 19 20 17 16 18 17 13 17 22 25 29 30 32 33 35 33 29 27 26 25 24
32 30 25 21 24 25 28 24 20 21 22 26 25 24 21 21 20 20 21 22 21 21 21 21 22 23 23 24 25 28 29 29 29 29 30 31 32 31 29 26 28 29 28
25 26 25 23 26 30 26 23 23 23 23 22 22 23 24 25 24 23 23 20 18 19 23 24 23 23 24 25 25 25 24 23 23 23 23 24 27 26 26 27 25 25 27
8 15 27 25 28 29 26 26 25 25 24 23 24 26 25 24 21 18 17 17 19 20 17 18 19 19 20 21 22 22 23 23 23 23 23 23 22 22 20 21 26 22 23
7 10 13 28 31 28 27 24 25 26 24 23 24 23 21 20 20 20 20 18 16 17 16 17 17 17 17 19 20 21 22 23 22 23 22 21 19 18 19 20 21 21 22
4 8 11 15 24 25 24 25 24 21 22 23 22 22 22 21 21 19 17 16 17 17 18 18 17 16 16 17 18 19 20 22 21 21 20 17 18 19 19 20 21 23 22
2 6 12 17 20 22 22 19 18 19 20 20 22 22 21 20 19 17 16 16 15 15 15 14 13 14 14 15 16 18 20 20 21 20 20 20 20 22 22 21 21 21 23
2 5 10 14 15 16 18 19 19 19 18 19 20 20 19 17 16 16 14 14 13 13 12 12 14 15 16 16 18 19 22 23 23 21 21 21 22 23 25 25 24 24 23
6 8 11 13 14 14 14 14 13 13 15 15 16 16 15 15 14 13 12 12 12 12 13 14 16 17 18 19 19 20 21 23 24 23 23 21 21 22 23 23 23 23 22
8 9 9 11 10 10 11 9 11 13 14 14 15 14 14 14 13 13 13 13 13 14 14 16 17 19 20 22 23 22 21 21 21 21 21 19 19 20 20 18 15 15 16
3 8 10 9 10 10 9 10 13 13 13 14 14 13 13 13 13 13 12 12 13 14 15 16 18 19 20 22 22 20 19 19 18 18 17 16 16 15 15 14 14 14 15
6 6 13 13 11 11 10 12 12 12 13 13 12 13 13 14 13 13 12 13 14 15 17 18 19 21 21 20 20 19 16 16 15 15 15 14 14 14 14 13 12 12 13
5 6 12 14 12 11 11 11 11 12 10 11 13 14 14 14 13 13 13 14 15 17 18 19 19 19 18 17 17 18 15 13 14 14 14 13 13 14 14 13 13 13 13
1 2 10 14 14 13 12 11 11 9 13 13 14 14 14 14 14 14 14 15 17 19 20 20 18 17 16 16 14 15 15 13 12 13 13 12 13 12 13 12 12 14 14
5 3 5 7 10 12 13 13 11 12 13 14 14 14 14 15 15 15 15 17 18 20 20 19 18 16 15 16 16 16 17 16 14 11 12 12 13 12 13 13 13 15 13
5 5 4 4 6 8 11 12 13 13 13 14 14 14 15 15 15 15 15 16 18 19 19 18 18 16 16 18 18 18 16 16 14 12 13 14 15 15 14 14 15 15 13
3 3 3 3 2 2 3 5 6 8 10 11 12 13 14 14 15 15 15 15 15 17 18 18 18 18 18 17 18 18 18 15 12 14 15 16 17 17 16 16 15 15 15
3 2 2 2 1 1 3 5 7 8 9 11 12 13 14 15 15 15 15 14 13 14 15 18 20 19 19 18 18 18 16 14 13 15 17 17 16 16 16 16 15 16 16

GFSMW_850_spd_105.txt.gz
Wind_Speed
9 17 24 32 33 33 37 38 39 38 36 34 33 29 29 25 24 19 15 14 12 11 14 14 14 15 16 16 15 14 14 15 14 14 14 14 14 14 15 15 15 15 14
8 13 18 30 34 30 35 36 35 33 32 31 31 30 26 26 21 20 18 17 12 11 10 11 13 16 18 20 19 18 14 10 14 15 13 11 8 9 12 16 17 17 16
7 10 14 23 33 37 34 33 30 28 29 30 33 29 25 27 20 22 23 23 18 17 17 18 18 16 17 18 19 17 17 10 14 16 14 6 4 5 9 8 11 16 17
8 10 14 19 25 28 29 28 29 28 29 29 30 26 25 26 23 31 26 27 23 21 21 23 22 22 17 17 18 20 22 19 19 19 21 21 20 11 8 10 12 14 14
11 13 16 19 18 19 23 27 30 29 28 26 25 22 23 22 25 27 29 29 26 26 26 25 27 24 21 20 21 24 31 21 22 22 17 16 15 15 15 16 15 18 17
17 23 19 26 22 20 19 20 20 23 24 23 21 21 20 21 23 25 27 29 26 25 23 24 25 24 26 24 29 23 28 27 22 14 14 16 16 17 18 18 20 27 21
29 22 23 22 30 26 21 19 20 21 20 17 15 17 18 19 20 21 19 22 25 24 19 14 14 13 15 17 19 20 19 16 20 17 19 16 20 20 17 22 27 26 27
29 21 14 18 23 29 26 20 20 19 17 18 17 19 18 20 19 19 16 10 8 9 11 12 15 16 17 19 20 18 19 24 26 22 22 27 33 24 23 24 29 31 28
23 19 14 10 23 27 25 22 19 17 16 18 18 19 17 19 17 15 14 13 14 14 13 16 18 19 19 17 18 20 18 19 20 22 26 29 29 31 32 30 29 30 27
18 18 17 15 12 22 24 23 19 17 15 16 19 19 20 18 17 16 16 17 15 13 15 16 17 18 19 19 19 21 24 26 25 26 27 28 28 30 30 29 29 27 26
22 21 21 19 18 18 23 23 22 20 18 17 19 21 22 21 19 19 18 16 17 17 16 18 19 20 20 20 22 23 23 23 23 23 24 24 24 23 22 22 22 23 23
10 24 23 23 22 23 26 22 18 17 17 16 19 20 21 22 22 20 20 21 20 19 17 17 17 16 17 17 18 20 21 22 23 23 24 24 24 22 19 21 20 24 24
3 7 18 20 23 27 24 22 21 19 18 17 17 20 23 22 22 23 23 21 19 17 16 14 14 16 17 18 18 19 19 20 21 22 22 22 24 21 19 17 16 21 20
4 3 7 17 20 24 25 24 22 20 20 20 20 20 20 20 20 19 19 17 15 15 15 14 15 15 15 15 15 16 16 17 19 21 22 22 20 18 17 19 19 19 21
3 2 4 7 16 20 21 21 21 20 20 18 17 17 17 17 16 15 15 15 16 15 14 13 12 12 13 14 14 15 17 19 20 21 22 22 21 19 19 21 20 18 17
6 3 2 6 9 13 15 15 15 16 16 16 16 16 15 16 16 16 16 15 14 12 11 11 11 12 14 15 16 17 19 21 22 23 24 24 23 21 21 23 24 24 23
5 3 1 5 8 9 10 11 13 14 15 15 17 16 17 16 15 14 12 12 11 11 11 11 13 15 16 18 20 22 22 23 23 23 24 23 22 21 21 22 22 24 24
5 3 3 4 7 8 10 11 12 12 13 15 13 12 12 12 11 11 11 11 10 10 11 13 15 16 18 21 22 24 25 23 21 21 23 22 20 19 19 20 20 19 18
5 4 5 5 6 7 9 10 10 10 11 11 11 10 11 11 10 10 11 10 11 12 13 15 16 18 19 22 25 26 23 21 19 17 19 19 17 17 16 16 15 14 13
6 8 6 7 7 7 7 8 8 9 8 9 9 10 11 11 11 11 11 11 12 13 15 17 18 20 21 23 24 23 21 20 19 16 14 15 16 15 15 14 13 12 12
5 5 7 9 9 9 8 7 8 6 7 9 10 11 11 10 11 12 13 13 14 15 16 17 19 20 21 20 19 19 20 18 18 15 13 13 14 14 15 14 12 11 12
3 4 3 8 8 9 9 8 6 6 8 9 10 11 11 12 13 14 15 15 14 15 18 20 20 20 19 18 15 14 16 19 18 16 14 13 12 14 12 13 11 13 14
6 3 4 4 6 7 9 9 9 8 9 10 11 12 13 14 15 15 15 15 14 16 18 20 21 20 18 16 15 17 17 18 21 16 15 15 11 12 13 13 12 14 14
5 5 2 2 4 5 7 9 11 11 12 13 13 14 15 15 16 16 15 15 16 16 17 18 18 18 19 17 17 19 18 17 20 18 14 11 13 15 15 15 14 16 14
3 3 3 3 2 2 3 5 7 9 10 11 13 14 15 15 15 15 15 15 15 16 16 16 16 17 21 18 20 20 20 18 17 18 15 15 16 16 17 16 16 15 16
1 1 1 1 1 2 3 4 6 7 8 9 11 12 13 14 15 15 16 16 16 16 16 15 17 17 19 20 19 19 18 17 16 20 18 16 15 17 17 17 16 16 16

GFSMW_850_spd_108.txt.gz
Wind_Speed
12 24 33 30 37 38 40 44 45 43 42 39 38 34 31 30 27 24 18 17 15 15 14 13 13 14 14 12 11 11 11 10 11 13 12 10 12 11 13 14 14 14 14
11 17 30 31 29 33 35 34 48 47 45 39 36 33 31 29 25 22 20 17 15 13 12 11 12 13 13 13 13 12 12 11 11 13 12 8 7 9 10 11 14 15 15
8 13 24 33 34 30 31 36 36 43 42 41 39 34 29 28 26 26 25 22 16 11 10 11 11 12 13 14 12 13 12 10 12 14 11 7 5 4 9 13 10 8 9
3 11 12 24 32 35 30 21 29 43 41 38 32 25 22 25 24 19 17 15 18 17 16 18 18 16 20 17 14 14 11 12 25 21 15 19 20 20 14 17 11 10 11
4 8 10 11 25 33 27 24 31 32 29 30 31 32 35 30 24 26 23 21 21 19 23 24 24 22 19 16 10 13 18 17 11 16 23 25 23 22 17 12 14 13 12
6 9 5 9 16 22 24 29 21 29 24 23 29 34 34 30 31 26 26 25 25 23 25 18 17 18 14 15 14 20 22 20 21 19 16 15 16 17 16 18 19 18 18
6 6 9 9 13 17 20 23 27 29 25 21 18 18 15 18 18 23 20 17 20 19 17 18 18 15 10 6 9 12 11 14 11 11 17 16 17 15 16 21 22 23 24
11 3 2 7 12 16 16 18 18 16 13 14 13 9 14 16 16 14 9 10 9 8 7 7 5 7 8 8 10 11 10 10 12 21 21 19 17 19 25 26 24 29 29
17 4 5 7 11 14 19 14 11 11 11 11 12 11 10 10 9 7 6 5 8 6 5 5 5 7 8 9 9 10 12 16 16 16 20 21 21 24 25 26 26 27 24
17 13 14 9 7 11 16 17 14 11 9 10 10 10 10 10 9 7 6 8 7 6 7 6 6 8 10 13 13 13 14 16 19 21 20 19 20 21 22 24 24 23 25
17 16 17 14 9 7 16 18 16 13 11 11 10 11 12 12 12 11 11 11 10 11 10 10 8 9 12 14 14 13 14 15 16 17 18 19 21 21 20 21 20 18 21
5 13 15 13 11 11 12 16 15 15 15 15 13 12 13 15 14 14 14 13 13 12 13 12 9 11 10 10 11 12 14 15 17 18 19 19 19 19 21 20 16 20 21
7 3 11 14 13 14 15 18 19 18 17 16 15 14 16 16 15 15 14 15 15 15 14 11 10 10 10 11 12 13 13 14 14 15 17 18 19 20 21 19 16 17 17
10 9 3 7 11 15 16 17 18 17 17 16 13 13 14 14 15 16 17 17 15 13 10 9 10 10 11 11 11 11 11 12 13 15 17 18 20 20 20 18 15 17 18
12 10 9 3 6 10 15 17 18 17 15 13 13 13 13 15 16 16 15 13 12 9 9 10 11 10 10 10 10 11 13 14 15 17 18 19 20 22 21 19 18 18 18
11 10 8 6 3 7 11 13 14 13 13 12 13 13 13 12 13 14 12 11 10 10 10 10 9 9 9 11 12 14 15 17 18 19 20 20 21 21 21 19 18 19 22
7 6 5 3 2 4 7 9 10 11 13 14 13 12 13 13 13 13 13 11 10 9 8 9 8 8 10 12 14 16 18 19 21 21 21 19 20 23 22 18 18 19 21
6 5 4 2 3 6 7 9 10 11 13 13 13 14 14 14 14 14 12 10 10 9 9 8 7 9 12 14 17 19 21 21 22 21 19 18 18 19 18 16 16 17 18
8 6 3 4 6 8 9 9 10 11 11 12 12 11 12 13 13 12 12 10 9 8 8 7 8 10 13 16 20 22 23 22 19 18 18 18 16 12 14 15 15 13 12
9 9 6 6 8 8 8 8 8 9 9 10 12 13 13 11 11 10 11 9 9 8 8 7 9 12 14 17 22 23 21 19 18 16 16 16 13 11 13 13 13 12 11
6 7 5 6 8 9 8 8 8 6 7 9 10 10 11 11 12 12 10 9 9 9 8 8 11 13 15 18 20 20 19 18 17 17 15 15 12 14 12 13 11 12 12
5 6 3 6 8 8 8 6 6 6 6 8 9 10 11 11 11 12 11 10 11 11 11 10 11 15 17 19 17 15 15 17 19 17 18 15 13 14 14 13 11 11 12
8 6 7 4 5 6 7 7 7 6 6 7 8 10 10 12 12 12 12 12 13 14 12 14 15 16 18 16 17 15 16 17 19 18 17 17 14 14 13 10 10 12 12
6 7 4 3 3 3 3 5 7 8 8 8 9 11 12 13 13 14 14 15 15 14 15 16 15 15 15 16 17 17 17 17 17 18 18 16 13 12 11 11 12 13 13
5 4 4 5 4 2 0 2 5 7 8 10 10 12 13 13 14 14 14 15 14 15 15 15 15 14 15 13 16 19 18 17 16 18 19 17 15 14 14 14 14 14 14
2 3 4 4 3 2 2 3 3 5 7 7 9 10 12 13 14 14 15 16 17 17 16 17 16 15 18 16 17 20 19 17 16 19 20 17 15 15 15 14 14 14 14

GFSMW_850_spd_111.txt.gz
Wind_Speed
23 38 39 37 48 51 42 41 42 44 42 39 36 34 32 30 26 26 25 26 24 22 20 17 18 17 14 11 10 9 8 7 6 7 7 7 10 12 13 14 14 14 14
13 33 40 41 40 46 40 40 38 40 41 38 36 34 31 30 26 25 25 23 21 19 17 16 15 14 13 12 11 10 9 7 5 6 8 5 6 9 11 12 13 16 16
12 23 34 38 33 29 33 35 34 34 37 38 38 36 31 29 30 28 24 23 22 21 18 15 15 14 14 12 12 12 10 8 6 10 11 6 6 9 9 13 15 16 13
16 19 35 37 36 40 26 33 35 34 35 39 40 38 36 34 33 30 27 24 22 19 17 17 16 15 12 12 13 14 11 10 15 18 16 19 20 14 10 17 17 15 9
18 15 25 31 32 38 37 33 23 27 44 24 40 38 32 31 30 27 20 22 17 14 16 17 16 16 15 7 7 11 17 17 14 13 12 15 18 19 20 9 9 12 14
18 16 16 22 27 29 29 23 22 21 38 52 35 34 28 27 27 28 23 18 21 21 21 22 20 15 16 13 13 15 14 14 19 18 15 8 10 11 10 12 13 16 18
14 15 12 12 21 31 27 26 26 29 31 20 46 32 37 36 36 32 27 31 26 25 19 17 18 15 13 9 7 9 9 7 8 9 6 10 11 13 13 13 18 21 21
13 14 13 14 16 20 23 23 24 18 19 24 26 13 33 18 28 25 24 26 23 22 19 19 16 13 11 8 7 5 5 6 7 9 12 12 13 13 15 17 19 20 21
11 14 13 9 14 19 19 16 15 17 16 14 13 15 23 24 24 20 18 15 15 17 19 18 15 10 9 8 6 5 6 7 9 11 11 15 15 16 16 18 18 18 20
9 10 14 7 4 13 18 17 16 16 17 15 17 18 19 19 18 18 19 19 20 18 18 17 12 12 10 6 5 6 7 8 10 13 14 14 14 14 15 15 17 18 17
11 7 11 6 3 10 17 17 17 17 16 17 16 16 15 15 16 16 16 17 16 14 17 12 10 8 6 4 4 4 5 7 8 10 12 13 14 14 14 15 15 16 16
9 7 7 5 1 5 14 15 15 15 15 14 12 11 11 12 12 15 16 16 13 14 13 8 8 8 5 5 5 5 7 9 10 10 11 13 13 13 14 15 15 16 13
8 7 12 9 9 5 9 15 16 14 15 14 12 12 12 13 15 15 15 14 14 13 10 10 11 9 7 8 6 7 8 9 9 9 10 12 14 15 16 17 17 16 13
19 15 5 12 15 13 11 14 15 15 13 13 14 12 12 14 13 12 13 12 13 12 11 12 11 8 7 7 6 6 8 7 9 10 11 13 15 17 18 19 18 17 16
22 19 16 8 4 7 11 13 14 14 14 14 14 13 12 11 11 11 12 12 12 12 11 11 9 8 8 7 6 6 8 8 10 12 14 16 17 19 20 20 19 19 18
19 17 15 13 7 4 6 9 11 12 12 13 13 13 12 12 12 13 13 13 13 13 12 11 10 9 7 5 6 7 9 11 13 14 15 17 18 18 18 18 20 20 18
15 14 13 10 8 5 7 8 11 12 13 13 13 12 12 13 13 13 14 15 14 13 12 12 10 7 6 6 8 8 11 13 15 15 16 17 17 17 16 17 21 16 17
11 11 9 6 2 1 4 7 9 11 12 13 13 13 13 12 13 14 14 13 13 12 11 9 7 7 8 7 8 9 12 14 16 16 16 15 16 17 17 14 11 15 16
12 10 9 8 4 1 2 5 7 9 11 12 13 13 13 14 15 15 14 13 12 11 11 10 9 7 6 7 8 12 15 17 16 14 14 15 15 15 16 12 10 11 14
10 10 6 5 3 2 2 2 3 6 7 8 9 10 11 12 12 13 13 13 12 11 11 9 7 6 5 7 10 14 17 16 15 14 12 13 14 12 11 13 10 10 11
10 10 5 2 6 5 3 3 3 4 6 7 8 9 11 12 13 13 12 12 12 12 12 10 7 6 5 7 11 13 14 14 15 14 14 14 13 12 10 13 12 11 11
9 10 8 3 4 5 5 4 4 4 5 7 7 8 9 11 12 11 12 13 13 13 12 10 10 10 8 8 11 13 15 16 16 16 14 15 15 13 11 12 12 13 11
9 8 8 6 3 5 6 5 5 5 5 6 8 9 11 11 12 12 13 13 13 14 15 14 13 13 13 11 11 15 16 17 17 16 15 16 17 12 11 11 9 11 10
6 7 7 5 5 3 2 4 6 7 7 7 8 9 10 11 12 13 14 15 16 16 15 14 15 13 12 12 12 13 12 15 17 17 17 17 16 13 11 10 11 11 11
4 5 5 5 4 4 1 1 2 4 6 8 9 10 11 12 13 14 14 15 15 15 15 16 15 12 11 12 12 12 12 14 15 17 16 16 16 15 13 12 12 12 12
4 4 4 4 3 3 3 3 3 3 5 6 7 8 10 11 12 16 15 15 16 16 17 16 15 14 12 14 17 16 17 17 13 16 17 16 16 14 13 13 12 12 12

GFSMW_850_spd_114.txt.gz
Wind_Speed
15 20 12 37 33 50 54 49 52 45 40 40 37 34 32 29 25 22 24 27 26 26 25 21 20 17 14 13 12 11 9 8 6 6 6 7 9 11 12 13 15 14 14
17 18 15 26 34 52 51 48 42 45 40 40 35 33 33 28 28 29 29 28 28 26 23 20 18 17 16 13 11 10 9 9 7 7 7 4 5 8 8 13 14 17 17
18 18 16 29 29 38 43 44 43 39 43 43 36 35 32 30 31 32 30 30 27 24 22 19 17 16 16 15 15 13 12 10 12 13 6 4 4 5 10 11 10 15 16
15 16 20 30 35 36 47 38 39 34 37 34 34 36 37 35 35 33 30 27 26 24 22 20 19 19 19 17 16 14 12 14 16 13 13 10 12 5 8 8 12 17 15
12 14 20 28 37 38 28 27 27 27 22 29 35 36 36 35 33 33 30 28 28 25 24 23 22 21 19 16 11 14 13 18 20 16 15 10 11 13 11 15 7 9 12
7 11 18 26 36 36 35 22 20 28 22 34 34 35 37 37 33 32 31 28 25 25 21 22 20 20 17 17 14 21 21 17 18 18 16 15 12 9 7 10 13 14 13
6 12 21 32 29 36 34 27 31 20 16 26 23 31 36 32 24 24 26 25 24 19 19 12 13 14 13 17 19 16 15 17 17 14 13 12 9 9 10 12 13 14 18
6 5 19 25 31 31 30 31 33 33 28 22 20 25 22 14 29 29 24 22 21 17 19 16 18 19 22 21 17 13 12 13 13 12 12 13 13 14 12 14 13 12 13
7 8 24 22 26 29 26 24 19 20 26 28 30 16 14 31 33 28 28 33 23 24 24 24 29 25 20 19 15 13 14 14 13 13 13 13 13 15 15 15 16 14 12
7 19 24 20 23 23 22 18 17 24 24 26 23 17 19 27 27 33 27 26 23 27 29 30 30 24 20 19 16 14 13 13 13 14 14 15 14 13 13 14 14 15 17
24 19 26 19 18 24 25 22 21 26 25 27 24 24 25 27 30 34 28 27 25 27 29 28 23 21 20 17 16 15 15 14 13 13 12 12 12 13 12 12 13 15 16
23 18 20 19 16 18 23 24 22 23 23 25 24 24 23 23 25 25 28 28 27 27 27 24 21 20 19 18 16 14 13 12 12 11 10 9 9 10 12 12 14 15 16
17 17 15 16 15 12 17 20 20 19 21 23 23 22 22 24 25 27 29 30 27 25 26 21 20 20 18 17 15 12 12 11 10 9 9 10 11 12 13 14 16 17 16
16 10 7 6 8 11 10 16 20 19 20 21 24 24 22 22 24 27 28 26 24 25 24 20 20 20 18 15 13 13 12 12 12 11 11 11 13 14 16 17 18 19 18
19 20 13 6 2 2 9 10 15 19 19 20 21 22 22 22 23 25 25 24 24 24 20 18 20 19 17 14 13 13 12 11 11 11 12 12 15 17 18 19 18 19 19
16 16 15 14 8 7 8 10 11 13 14 15 19 20 21 22 22 23 23 22 22 20 19 20 19 18 16 15 13 11 10 11 11 11 12 15 17 18 19 18 17 19 19
14 15 13 12 11 7 8 9 10 11 14 16 16 17 19 20 19 19 19 19 20 20 21 20 18 16 15 13 12 11 11 10 10 12 14 17 18 18 18 17 19 19 18
13 13 12 8 7 7 7 6 8 11 12 13 14 15 16 18 20 21 21 21 21 21 20 18 18 17 15 12 10 8 8 8 11 14 14 16 16 18 17 17 17 17 15
14 12 9 6 5 3 3 5 5 5 6 9 12 14 15 16 17 18 18 19 20 19 18 18 16 15 13 10 7 5 7 10 13 14 15 15 16 17 17 16 14 13 14
14 12 9 4 4 3 2 2 3 5 7 9 11 13 14 16 17 18 19 20 19 19 18 17 16 14 12 9 6 5 9 11 12 13 13 15 15 14 12 13 12 12 13
15 14 10 5 3 4 4 4 3 3 5 7 9 11 12 13 13 14 14 15 17 17 17 16 15 14 12 10 7 5 7 10 11 11 11 13 14 13 14 14 13 13 12
13 13 12 8 6 4 4 4 5 5 5 5 6 8 10 12 13 14 16 16 17 17 16 15 15 14 13 13 12 9 7 8 11 12 12 9 13 15 14 15 14 13 13
12 12 12 10 6 3 2 2 2 2 4 6 8 10 12 13 14 15 15 16 18 18 18 17 16 17 16 14 14 13 14 11 9 11 13 15 14 15 15 13 12 12 12
9 9 10 9 8 6 4 3 4 4 4 5 5 7 9 12 13 15 17 17 18 18 18 17 16 16 15 14 12 11 11 10 9 11 13 14 15 16 15 13 12 12 13
5 7 9 9 9 8 6 5 4 5 6 5 6 9 9 10 12 14 15 16 16 16 17 16 17 17 15 13 12 10 11 12 12 14 15 14 15 17 16 15 13 14 14
4 4 5 7 7 7 7 7 6 5 5 6 7 9 10 11 13 15 15 13 15 17 17 17 16 15 16 16 14 13 13 15 16 14 14 13 15 16 15 15 14 15 14

GFSMW_850_spd_117.txt.gz
Wind_Speed
17 17 17 20 25 22 34 32 46 44 44 35 38 32 32 28 27 28 27 29 25 26 25 18 16 16 13 11 12 11 11 10 8 7 8 7 7 8 8 9 10 11 12
19 16 17 15 21 22 30 17 44 44 45 37 39 35 32 28 29 29 28 29 27 28 26 19 18 16 14 14 13 12 12 11 9 6 6 3 7 8 8 7 10 11 14
22 17 11 13 23 29 37 30 29 43 42 40 40 37 31 30 29 26 27 27 27 25 25 20 19 18 16 15 15 15 13 10 10 14 5 2 3 2 8 8 10 10 12
18 16 9 15 23 33 27 38 51 39 46 43 39 37 35 35 32 32 31 29 26 26 24 23 19 18 19 18 16 15 12 15 18 11 10 10 11 5 3 9 9 11 14
16 14 14 20 29 22 37 30 51 52 47 46 41 39 36 35 31 29 28 30 28 26 26 24 21 20 19 16 15 14 15 15 15 14 14 13 11 9 10 9 13 8 11
10 14 17 21 29 23 25 34 34 39 47 37 36 36 35 31 30 28 25 26 30 28 26 25 23 21 18 16 15 15 12 14 18 20 16 14 11 10 8 9 12 13 15
2 8 14 19 28 28 19 28 8 34 27 31 31 34 32 32 26 29 28 29 31 30 29 26 22 18 18 14 14 6 22 21 22 21 17 15 12 10 10 9 10 13 15
13 2 11 20 28 29 16 25 24 19 18 26 21 32 30 26 28 23 27 29 28 25 23 18 15 14 10 6 9 19 25 20 18 19 15 12 13 15 13 14 12 15 14
20 6 10 20 29 31 25 25 23 19 13 15 7 16 12 9 12 22 26 28 28 23 16 15 13 11 9 13 20 26 20 18 15 15 15 16 16 16 16 18 16 15 12
22 16 11 23 28 29 25 27 23 21 23 20 18 20 11 15 26 25 25 29 30 25 16 13 15 15 13 25 29 23 20 20 15 14 15 17 17 17 17 16 16 16 16
26 19 14 22 28 25 22 19 19 20 29 26 27 27 28 27 30 26 27 43 34 34 28 27 27 23 26 28 25 21 19 18 15 16 16 16 16 15 16 16 15 15 14
24 22 19 24 27 27 23 19 14 15 12 14 20 22 24 28 24 27 37 31 38 40 41 36 30 33 33 27 24 22 19 17 17 16 15 17 17 15 15 14 13 14 15
26 26 22 22 22 22 21 19 17 18 19 19 23 25 24 24 25 26 33 32 30 32 33 34 32 28 30 28 26 21 20 19 18 17 17 17 15 15 14 14 15 15 17
26 29 26 22 18 17 16 19 21 18 18 21 24 23 25 26 26 29 33 31 32 34 30 29 27 27 26 25 23 22 21 19 17 16 15 15 14 15 15 16 18 19 19
27 21 21 19 15 16 12 13 19 20 20 21 21 21 22 22 22 25 27 29 31 31 28 27 25 24 25 24 23 21 19 17 15 14 14 15 15 16 17 19 20 22 21
19 17 17 8 11 8 9 9 10 15 18 22 23 23 23 23 22 25 26 27 26 27 27 25 23 25 26 24 22 19 17 15 15 14 15 16 17 19 20 21 20 19 19
17 16 16 13 9 7 6 7 8 10 16 19 23 24 24 24 24 26 25 24 24 24 25 23 23 23 22 20 19 17 16 15 14 15 16 17 18 19 20 20 19 19 19
15 14 12 9 9 10 9 7 8 8 9 11 16 20 21 21 21 22 23 24 24 24 24 24 23 22 20 19 17 16 15 14 13 13 15 17 18 18 18 18 18 17 18
14 13 11 10 10 9 8 7 6 6 7 8 10 12 15 16 18 19 19 20 21 21 21 21 21 20 19 18 17 15 12 10 10 13 14 14 15 17 17 17 17 16 15
16 15 12 10 9 7 7 5 4 3 3 5 8 9 11 12 14 16 17 18 18 18 20 21 20 20 19 18 17 14 11 10 9 10 11 11 13 15 15 15 15 14 15
17 14 12 10 10 10 8 7 4 2 2 3 6 8 10 12 13 15 16 18 19 21 21 21 21 20 20 19 17 15 12 10 9 7 9 11 12 12 12 12 13 15 15
16 16 15 12 9 7 6 6 6 5 2 1 2 4 7 10 13 13 15 16 17 19 20 21 21 21 20 20 20 18 16 15 12 12 11 12 14 15 13 15 14 14 15
13 13 13 14 12 8 6 5 5 4 3 2 1 3 6 7 8 10 14 16 18 21 22 24 23 23 23 23 22 21 18 18 16 16 15 13 13 16 16 16 17 15 14
10 10 10 12 12 12 10 8 6 6 4 6 8 5 6 8 11 13 14 15 17 19 20 22 22 22 22 22 21 20 19 19 19 17 15 15 17 17 15 17 18 16 13
6 7 8 9 10 9 9 9 8 7 4 3 4 8 8 11 11 12 15 17 18 19 21 22 20 22 22 20 19 19 19 18 17 18 17 17 17 17 16 17 17 17 15
5 4 4 6 6 7 8 9 9 6 5 5 5 6 7 8 11 14 17 18 19 18 19 21 21 20 22 21 20 20 20 19 18 19 19 19 13 15 16 16 17 17 17

GFSMW_850_spd_120.txt.gz
Wind_Speed
38 31 24 24 31 31 24 25 28 42 49 46 43 38 38 34 34 37 31 39 34 36 34 30 29 26 24 21 17 15 15 14 12 9 4 2 3 4 6 8 9 10 12
31 26 24 26 33 27 25 20 29 48 42 50 48 46 44 38 37 40 39 37 38 36 35 31 29 26 22 19 17 15 14 12 10 4 3 3 6 6 7 7 6 8 11
19 22 24 25 27 27 25 25 37 35 49 53 51 43 41 38 37 35 40 40 36 36 34 30 27 24 21 20 17 16 14 11 9 9 5 4 2 1 6 6 9 8 9
25 24 27 21 26 25 21 20 34 32 46 44 47 44 45 41 38 39 36 38 33 34 32 28 27 25 23 19 18 16 14 13 11 9 9 8 6 5 4 8 11 11 8
21 23 21 20 23 24 24 26 22 38 30 39 41 43 42 39 38 39 36 39 34 32 33 30 28 26 24 20 18 18 16 13 11 9 8 6 11 10 10 12 13 12 10
19 20 20 18 20 23 26 30 31 28 36 31 41 45 43 41 41 40 41 38 36 33 33 32 26 24 23 21 18 16 15 12 10 8 10 12 10 10 11 11 11 8 10
7 14 17 21 21 25 26 27 26 23 31 37 34 41 43 40 38 43 42 41 39 36 34 30 29 25 22 19 16 14 14 12 13 12 15 14 13 12 11 10 9 10 13
4 13 17 22 28 30 25 35 15 16 25 50 29 40 36 37 36 36 37 38 40 36 34 32 27 23 21 19 18 17 13 14 16 17 15 12 15 14 16 15 11 13 13
4 9 17 26 34 35 30 24 16 18 10 33 36 26 29 28 33 31 31 29 32 31 31 27 25 23 21 21 16 14 15 13 21 20 17 18 18 17 16 15 14 14 12
12 9 19 26 37 29 27 22 14 13 9 25 20 14 10 14 17 25 28 27 27 29 28 28 23 25 22 18 15 8 11 21 23 18 16 16 15 15 17 16 15 14 13
26 14 20 34 35 32 30 28 21 22 18 17 13 15 17 8 19 19 21 21 24 27 30 29 24 24 19 13 11 12 17 22 21 19 17 17 16 16 15 15 14 15 14
30 26 32 33 33 26 22 19 14 19 20 23 19 22 21 15 16 15 24 19 24 28 31 31 27 23 20 18 15 21 30 28 25 20 19 18 16 15 16 15 15 14 14
34 45 39 34 30 26 21 16 16 24 18 21 20 23 25 27 21 20 23 21 23 32 38 36 35 32 32 34 27 26 29 28 24 22 20 18 16 16 16 15 14 15 16
34 43 42 35 26 20 18 19 23 21 17 18 18 19 20 20 20 19 22 21 29 26 31 31 35 39 35 29 28 29 29 27 26 21 19 19 18 17 16 15 16 16 17
40 37 35 34 28 23 16 14 15 17 13 10 11 13 15 15 15 14 16 21 26 24 22 21 23 28 29 31 30 29 27 26 23 20 19 18 17 16 15 16 17 18 20
35 36 34 31 28 23 17 12 12 12 12 13 12 13 14 16 18 19 19 21 25 25 25 25 24 26 29 28 27 26 25 23 21 21 19 17 17 16 16 18 19 21 21
30 29 26 27 23 19 16 13 9 9 5 5 8 10 11 12 11 12 14 19 23 23 24 26 26 25 25 25 24 24 24 23 22 19 18 17 17 17 20 21 22 22 20
24 25 23 20 21 19 17 13 10 7 4 2 5 9 11 10 11 13 15 18 20 21 23 24 23 22 22 22 23 22 22 20 19 17 16 16 17 18 19 20 20 20 19
19 18 17 17 17 17 16 15 13 10 9 8 3 5 8 10 13 15 17 18 18 19 21 22 23 22 21 22 23 23 22 20 18 16 15 15 16 17 18 18 18 18 18
20 16 14 15 16 15 12 10 10 8 9 7 4 2 2 4 5 8 11 13 15 16 18 20 20 20 21 21 22 22 21 19 16 15 14 14 13 11 11 12 15 16 16
17 15 14 14 14 12 11 11 10 10 9 5 3 1 2 4 5 7 9 10 12 15 16 19 20 21 22 22 23 23 22 20 19 16 14 12 11 10 10 11 12 12 13
15 15 14 13 12 11 10 11 9 9 8 6 5 4 4 5 7 9 11 12 13 15 16 18 20 21 22 23 24 25 24 23 21 17 16 15 14 13 12 14 15 13 14
14 14 15 12 10 9 10 9 10 8 8 8 8 7 5 5 6 7 9 11 13 15 17 19 21 22 23 24 25 26 26 25 22 20 19 18 17 14 14 16 15 15 15
13 12 13 13 13 12 10 9 8 7 8 8 8 8 10 11 10 9 11 12 13 14 17 19 21 22 23 23 25 26 26 26 25 25 25 22 19 17 16 15 14 16 16
8 8 9 10 11 11 9 8 6 6 6 9 10 10 9 9 11 12 13 13 15 17 18 22 23 22 24 24 24 25 25 25 25 24 24 22 21 18 16 13 15 15 15
2 3 4 6 6 5 6 8 10 10 10 9 10 11 11 11 12 13 15 17 16 16 20 23 22 22 21 22 23 25 25 23 23 23 22 22 21 20 17 15 14 15 16

GFSMW_850_spd_123.txt.gz
Wind_Speed
41 42 40 37 33 31 32 28 30 33 29 26 38 43 46 59 50 46 44 43 40 38 36 34 34 34 33 28 25 22 21 18 14 11 9 5 5 3 5 5 7 8 9
36 36 38 37 30 27 32 30 30 31 35 31 41 48 52 48 48 48 49 46 41 37 36 38 39 39 32 29 26 24 23 19 15 12 10 8 8 8 6 4 5 5 8
27 38 39 38 36 34 37 35 32 29 29 32 47 48 51 50 46 47 48 49 46 42 40 41 41 38 33 31 27 24 22 22 19 15 8 8 6 10 8 6 4 5 6
28 21 31 37 36 33 35 31 35 28 31 32 39 51 51 53 49 46 43 43 49 43 45 41 39 35 33 30 27 24 22 21 20 17 15 9 9 5 5 7 6 8 7
25 29 31 35 31 30 31 34 32 30 28 37 40 47 48 47 47 45 43 47 45 45 42 41 38 35 33 30 27 25 24 21 18 17 15 14 10 9 10 6 7 6 6
24 26 26 28 29 28 26 31 30 31 41 30 47 53 48 48 48 48 50 48 43 40 41 40 38 36 33 31 28 25 23 20 18 16 15 14 10 10 9 6 9 6 4
21 22 26 27 27 25 25 31 28 32 24 39 38 48 42 45 46 47 48 52 44 42 43 39 37 36 34 30 27 24 23 21 19 15 11 13 13 10 7 8 9 6 6
12 18 22 24 23 24 30 32 31 37 30 31 15 30 35 39 43 47 48 48 48 43 43 42 40 35 33 29 26 24 23 23 20 14 10 9 11 10 10 12 10 8 7
10 17 18 20 24 29 32 31 31 25 22 22 22 24 22 46 42 45 45 47 45 43 43 43 40 35 32 30 27 26 24 20 17 13 9 10 11 11 11 12 11 10 8
5 17 21 21 27 33 35 31 32 26 17 13 26 28 39 39 41 42 42 44 44 43 44 42 38 34 32 31 29 28 23 17 15 9 9 11 14 12 12 14 14 13 11
9 17 19 23 32 30 31 24 23 17 7 17 27 33 20 38 40 36 35 39 40 41 42 40 38 36 34 33 31 27 24 19 15 17 17 15 14 14 15 15 14 12 11
10 20 26 30 37 28 26 21 18 16 19 17 20 29 19 16 14 24 29 33 34 36 39 38 38 37 35 35 28 27 22 14 18 17 27 21 18 17 16 15 13 12 11
27 39 40 36 33 28 21 15 11 12 15 24 24 29 23 13 7 19 19 16 31 30 36 39 37 36 37 33 27 18 14 18 22 25 25 22 19 19 17 14 12 12 14
36 41 43 39 35 27 29 26 23 19 23 20 30 25 16 17 17 13 17 18 19 27 30 36 37 37 37 34 28 23 18 23 28 36 32 29 21 19 16 14 15 15 15
38 41 47 41 35 34 28 23 24 19 18 18 18 16 14 19 14 14 14 16 19 20 28 28 28 34 38 37 33 29 30 35 30 27 25 22 20 17 15 15 16 16 17
30 42 42 41 37 31 27 22 19 16 11 12 11 10 8 9 10 8 7 10 16 18 20 17 15 17 25 24 28 37 31 29 27 23 22 21 18 18 17 17 17 18 18
35 35 36 34 31 29 26 23 20 15 13 11 10 7 7 7 6 6 8 8 9 11 14 14 16 20 23 25 23 25 26 23 23 22 21 21 20 18 18 18 19 19 19
30 32 31 29 26 22 19 16 11 12 11 11 8 7 5 2 2 4 5 6 9 15 18 19 17 13 17 18 18 18 21 21 22 20 20 20 19 19 18 18 19 19 20
22 24 24 25 24 24 22 19 17 15 14 12 9 6 4 3 2 2 4 6 7 9 11 13 16 22 19 17 19 21 22 22 21 21 21 19 17 17 17 16 17 18 19
21 21 21 23 24 22 18 17 18 16 16 13 11 8 6 3 3 4 4 4 5 6 10 13 14 15 15 18 18 21 21 22 22 21 19 18 17 16 15 13 13 13 15
20 18 19 22 22 18 17 19 18 20 17 13 10 8 6 5 3 2 3 5 6 8 10 11 12 14 14 16 18 20 22 21 21 21 20 19 17 15 12 12 11 13 13
19 18 17 19 18 15 13 15 17 17 13 12 11 9 8 7 6 7 7 6 7 8 10 12 14 15 16 18 19 21 22 23 22 23 21 19 17 15 14 13 13 15 16
15 15 17 16 16 15 14 14 16 12 11 10 11 10 8 8 8 8 9 10 9 9 10 12 14 16 18 19 21 22 24 25 25 23 22 21 20 19 17 16 16 17 16
9 12 11 12 13 15 14 14 13 12 11 11 10 10 8 7 6 6 7 8 10 11 12 14 14 14 16 18 20 22 24 26 28 28 27 26 25 23 21 21 19 17 15
5 5 5 6 7 9 11 10 10 11 13 13 11 10 9 8 8 8 8 9 9 10 13 15 16 17 19 19 20 21 22 24 25 27 29 30 31 30 26 23 20 16 16
2 0 3 5 6 5 5 6 7 9 11 13 13 12 12 11 11 11 11 12 12 13 15 16 17 18 20 22 19 20 22 22 23 25 29 31 32 31 25 23 20 18 16